Showing default

YAOGAN-43 02D, 60948

Orbit data source: Space-Track

YAOGAN-43 02D, 60948 is a payload satellite owned by PLA GAD (CN) in LEO that was launched on Tue, 03 Sep 2024 UTC via a CHANG ZHENG 4B launch vehicle from the Xichang Space Center, China (XSC). Payloads include a variety of satellites, spacecraft, and rockets equipped with specific instruments for various scientific and technological missions. These include communications satellites like Starlink; space stations such as the ISS; scientific satellites like the Hubble; Earth observation satellites from companies like Planet Labs, Umbra, and HawkEye 360; GPS; miniature CubeSats for education and research; and military/defense satellites.

Loading next visibility...
YAOGAN-43 02D details
Identifier
60948, 2024-156D
Orbit
LEO
Last TLE update22 hours ago
Origin
Flag of CNPLA GAD (CN / PRC)
ManufacturerSAST
MissionOperational spacecraft
Bus & MotorUnknown
Mass~300 kg wet, ~300 kg dry
Launch date (UTC)
2024-09-03 (4 months ago)
Launch vehicle
CHANG ZHENG 4B
Launch site
Xichang Space Center, China (XSC)
Object type
Payload
Rocket body
Debris
Shape & HBRUnknown
Radar Cross SectionLarge (>1 m²)

Expand to show TLE details & history

TLE from 22 hours ago
0 YAOGAN-43 02D
1 60948U 24156D   25014.27841038  .00004413  38190-8  18434-3 0  9994
2 60948  34.9923 221.5685 0003765  34.3902 325.7055 15.22670107 20280
Epoch: 2025-01-14T06:40Z
Definitive object data (Epoch: 2025-01-14T06:40:54.656Z)
Latitude-0.00007°
Longitude7.35327°
Altitude494.559 km
Speed7.621 km/s
True Right ascension14h 46m 16s
True Declination0° 00' 00"
Sunlit
Object was in daylight at TLE epoch
Visualization TLE readout
Latitude26.13301°
Longitude45.71267°
Altitude494.338 km
Speed7.624 km/s
Apparent Right ascension17h 26m 26s
Apparent Declination-5° 28' 32"
Sunlit
Object is in daylight
Visualization observer readout
Local Sidereal Time05:34:54
Azimuth3.727° NNE
Elevation-55.507°
Doppler factor1
Orbital elements
Apogee altitude503.631 km
Perigee altitude498.451 km
Semi-major axis6,879.178 km
Eccentricity0.0003765
Inclination34.9923°
RAAN221.5685°
Arg. of periapsis34.3902°
True anomaly325.68118°
Mean anomaly325.7055°
Eccentric anomaly325.69334°
Mean motion3.80398 °/min
BSTAR0.00018434
Orbital period94.64 mins
Loading maneuver chart data...
Loading historical data...
Loading historical data...
Loading historical data...
Loading historical data...
Loading historical data...
Loading historical data...
Loading historical data...

YAOGAN-43 02D Visibility forecast

Observer location: undefined°, undefined

Span
Click to sort rows by Start time (UTC) header in descending order
Start Az.
Max El. time (UTC)
Max El. Az.
Max El.
End time (UTC)
End Az.
5 mins2025-01-15 17:33:46.969Z209.372° SW2025-01-15 17:35:46.969Z169.762° S22.409°2025-01-15 17:38:46.969Z111.462° ESE
5 mins2025-01-15 19:13:46.969Z229.56° WSW2025-01-15 19:15:46.969Z165.188° S31.535°2025-01-15 19:18:46.969Z110.63° ESE
5 mins2025-01-15 20:52:46.969Z242.503° WSW2025-01-15 20:54:46.969Z198.441° SSW25.553°2025-01-15 20:57:46.969Z137.042° SSE
|